CAPE
0 0 0 0 0 0 0 0 0 0 0 0 0 0 0 0 0 0 0 0 0 0 0 0 0 0 0 0 0 0 0 0 0 0 0 0 0 0 0 0 10 5 123 529 54
0 0 0 0 0 0 0 0 0 0 0 0 0 0 0 0 0 0 0 0 0 0 0 0 0 0 0 0 0 0 0 0 0 0 0 0 0 0 0 0 0 0 0 48 0
0 0 0 0 0 0 0 0 0 0 0 0 0 0 0 0 0 0 0 0 0 0 0 0 0 0 0 0 0 0 0 0 0 0 0 0 0 0 0 0 0 0 0 0 0
0 0 0 0 0 0 0 0 0 0 0 0 0 0 0 0 0 0 0 0 0 0 0 0 0 0 0 0 0 0 0 0 0 0 0 0 0 0 0 0 0 0 0 0 30
0 0 0 0 0 0 0 0 0 0 0 0 0 0 0 0 0 0 0 0 0 0 0 0 0 0 0 0 0 0 0 0 0 0 0 0 0 0 0 0 0 0 0 0 58
0 0 0 0 0 0 0 0 0 0 0 0 0 0 0 0 0 0 0 0 0 0 0 0 0 0 0 0 0 0 0 0 0 0 0 0 0 0 0 0 0 0 0 1 60
0 0 0 0 0 0 0 0 0 0 0 0 0 0 0 0 0 0 0 0 0 0 0 0 0 0 0 0 0 0 0 0 0 0 0 0 0 0 0 0 0 0 0 0 0
25 16 1 0 0 0 0 0 0 0 0 0 0 0 0 0 0 0 0 0 0 0 0 0 0 0 0 0 0 0 0 0 0 0 0 0 0 0 0 0 0 0 0 0 0
36 27 19 16 2 0 0 0 0 0 0 0 0 0 0 0 0 0 0 0 0 0 0 0 0 0 0 0 0 0 0 0 0 0 0 0 0 0 0 0 0 0 0 0 0
2 4 2 0 0 0 0 0 0 0 0 0 0 0 0 0 0 0 0 0 0 0 0 0 0 0 0 0 0 0 0 0 0 0 0 0 0 0 0 0 0 0 0 0 0
0 0 1 2 0 0 0 0 0 0 0 0 0 0 0 0 0 0 0 0 0 0 0 0 0 0 0 0 0 0 0 0 0 0 0 0 0 0 0 0 0 0 0 0 0
2 3 2 0 0 0 0 0 0 0 0 0 0 0 0 0 0 0 0 0 0 0 0 0 0 0 0 0 0 0 0 0 0 0 0 0 0 0 0 0 0 0 0 0 0
0 0 0 0 0 0 0 0 0 0 0 0 0 0 0 0 0 0 0 0 0 0 0 0 0 0 0 0 0 0 0 0 0 0 0 0 0 0 0 0 0 0 0 0 0
0 0 0 0 0 0 0 0 0 0 0 0 0 0 0 0 0 0 0 0 0 0 0 0 0 0 0 0 0 0 0 0 0 0 0 0 0 0 0 0 0 0 0 0 0
1 0 0 0 0 0 0 0 0 0 0 0 0 0 0 0 0 0 0 0 0 0 0 0 0 0 0 0 0 0 0 0 0 0 0 0 0 0 0 0 0 0 0 0 0
1 0 0 0 0 0 0 0 0 0 0 0 0 0 0 0 0 0 0 0 0 0 0 0 0 0 0 0 0 0 0 0 0 0 0 0 0 0 0 0 0 0 0 0 0
2 0 0 0 0 0 0 0 0 0 0 0 0 0 0 0 0 0 0 0 0 0 0 0 0 0 0 0 0 0 0 0 0 0 0 0 0 0 0 0 0 0 0 0 0
14 2 0 0 0 0 0 0 0 0 0 0 0 0 0 0 0 0 0 0 0 0 0 0 0 0 0 0 0 0 0 4 1 5 2 0 0 0 0 0 0 0 0 0 0
4 1 1 0 0 0 19 2 0 0 0 0 0 0 0 0 0 0 0 0 0 0 0 0 0 0 0 0 0 0 0 0 0 0 1 0 0 0 0 0 0 0 0 0 0
3 0 0 0 0 5 32 0 1 0 0 0 0 0 0 0 0 0 0 0 0 0 0 0 0 0 0 0 0 0 0 1 1 0 1 6 1 0 0 0 0 0 0 0 0
2 3 0 1 0 5 7 2 14 0 0 0 0 0 0 0 0 0 0 0 0 0 0 2 8 2 0 0 2 1 2 0 2 6 10 2 0 0 0 0 0 0 0 0 0
0 0 0 1 3 0 0 4 0 0 0 0 0 0 0 0 0 0 0 0 0 0 0 0 2 0 0 8 0 0 0 4 5 3 12 1 0 0 0 0 0 0 0 0 0
0 3 0 1 2 0 0 0 1 0 0 0 0 0 0 0 0 0 0 2 0 0 1 2 2 0 0 0 0 19 0 0 1 3 0 6 0 0 0 0 0 0 0 0 0
0 0 1 0 0 2 1 1 1 1 1 0 1 0 0 0 0 3 4 6 7 1 0 0 0 0 0 0 0 0 0 0 1 1 0 6 0 0 0 0 0 0 0 0 0
0 0 0 0 1 2 2 0 2 2 0 0 1 0 0 0 0 0 1 1 4 12 4 4 0 0 0 0 5 2 0 0 0 4 13 0 0 0 0 0 0 0 0 0 0
0 0 0 0 0 1 0 0 0 0 0 0 0 0 0 0 0 0 0 3 4 11 4 1 3 0 0 0 0 1 0 0 0 0 0 4 9 1 6 0 0 0 0 0 0
0 0 0 0 1 0 0 0 0 0 0 0 0 0 0 0 0 0 0 0 0 0 4 6 8 7 0 2 12 1 0 0 0 8 20 22 32 31 10 0 0 0 0 4 10
CIN
0 0 0 0 0 0 0 0 0 0 0 0 0 0 0 0 0 0 0 0 0 0 0 0 0 0 0 0 0 0 0 0 0 0 0 0 0 0 0 0 -160 -249 -59 -284 -57
0 0 0 0 0 0 0 0 0 0 0 0 0 0 0 0 0 0 0 0 0 0 0 0 0 0 0 0 0 0 0 0 0 0 0 0 0 0 0 0 0 0 0 -545 0
0 0 0 0 0 0 0 0 0 0 0 0 0 0 0 0 0 0 0 0 0 0 0 0 0 0 0 0 0 0 0 0 0 0 0 0 0 0 0 0 0 0 0 0 0
0 0 0 0 0 0 0 0 0 0 0 0 0 0 0 0 0 0 0 0 0 0 0 0 0 0 0 0 0 0 0 0 0 0 0 0 0 0 0 0 0 0 0 0 -440
0 0 0 0 0 0 0 0 0 0 0 0 0 0 0 0 0 0 0 0 0 0 0 0 0 0 0 0 0 0 0 0 0 0 0 0 0 0 0 0 0 0 0 0 -275
0 0 0 0 0 0 0 0 0 0 0 0 0 0 0 0 0 0 0 0 0 0 0 0 0 0 0 0 0 0 0 0 0 0 0 0 0 0 0 0 0 0 0 -54 -224
0 0 0 0 0 0 0 0 0 0 0 0 0 0 0 0 0 0 0 0 0 0 0 0 0 0 0 0 0 0 0 0 0 0 0 0 0 0 0 0 0 0 0 0 -19
-16 -18 -4 0 0 0 -2 0 0 0 0 0 0 0 0 0 0 0 0 0 0 0 0 0 0 0 0 0 0 0 0 0 0 0 0 0 0 0 0 0 0 0 0 0 0
-20 -23 -28 -48 -37 0 0 0 0 0 0 0 0 0 0 0 0 0 0 0 0 0 0 0 0 0 0 0 0 0 0 0 0 0 0 0 0 0 0 0 0 0 0 0 0
-11 -68 -103 0 0 0 0 0 0 0 0 0 0 0 0 0 0 0 0 0 0 0 0 0 0 0 0 0 0 0 0 0 0 0 0 0 0 0 0 0 0 0 0 0 0
0 0 0 0 0 0 0 0 0 0 0 0 0 0 0 0 0 0 0 0 0 0 0 0 0 0 0 0 0 0 0 0 0 0 0 0 0 0 0 0 0 0 0 0 0
0 0 0 0 0 0 0 0 0 0 0 0 0 0 0 0 0 0 0 0 0 0 0 0 0 0 0 0 0 0 0 0 0 0 0 0 0 0 0 0 0 0 0 0 0
0 0 0 0 0 0 0 0 0 0 0 0 0 0 0 0 0 0 0 0 0 0 0 0 0 0 0 0 0 0 0 0 0 0 0 0 0 0 0 0 0 0 0 0 0
0 0 0 0 0 0 0 0 0 0 0 0 0 0 0 0 0 0 0 0 0 0 0 0 0 0 0 0 0 0 0 0 0 0 0 0 0 0 0 0 0 0 0 0 0
0 0 0 0 0 0 0 0 0 0 0 0 0 0 0 0 0 0 0 0 0 0 0 0 0 0 0 0 0 0 0 0 0 0 0 0 0 0 0 0 0 0 0 0 0
0 0 0 0 0 0 0 0 0 0 0 0 0 0 0 0 0 0 0 0 0 0 0 0 0 0 0 0 0 0 0 0 0 0 0 0 0 0 0 0 0 0 0 0 0
-10 0 0 0 0 0 0 0 0 0 0 0 0 0 0 0 0 0 0 0 0 0 0 0 0 0 0 0 0 0 0 0 0 0 0 0 0 0 0 0 0 0 0 0 0
-9 -10 0 0 0 0 0 0 0 0 0 0 0 0 0 0 0 0 0 0 0 0 0 0 0 0 0 0 0 0 0 -3 -2 -6 -3 0 0 0 0 0 0 0 0 0 0
-33 0 0 0 0 -2 -1 0 0 0 0 0 0 0 0 0 0 0 0 0 0 0 0 0 0 0 0 0 0 0 0 -1 0 0 0 0 0 0 0 0 0 0 0 0 0
-3 0 0 0 0 -8 0 0 -1 0 0 0 0 0 0 0 0 0 0 0 0 0 0 0 0 0 0 0 0 0 0 -4 0 0 -1 -3 -2 0 0 0 0 0 0 0 0
-1 0 0 0 -10 -17 0 -3 -2 0 0 0 0 0 0 0 0 0 0 0 0 0 0 -2 -1 -2 0 -1 -9 -3 -4 0 -4 -3 -1 -3 -3 0 -2 0 0 0 0 0 0
0 -2 0 0 -4 -18 0 0 0 0 0 0 0 0 0 0 0 0 0 0 0 0 0 0 -1 0 -4 -5 0 0 -1 -2 -4 -1 -1 -1 0 0 0 0 0 0 0 0 0
0 0 0 0 0 0 0 0 -8 -1 0 0 0 0 0 0 0 0 0 -2 0 0 -1 -2 -1 0 0 0 0 -1 0 0 -2 -11 0 -2 -1 0 0 0 0 0 0 0 0
0 0 0 0 0 0 0 0 0 0 0 0 -1 0 -1 0 -1 -2 -1 -2 -5 -1 0 0 -1 -1 0 0 0 0 0 0 -2 -1 0 -4 0 0 0 0 0 0 0 0 0
0 0 0 0 0 0 0 0 0 0 -1 -1 -1 0 0 0 0 0 -1 -3 -1 -3 0 -1 0 0 0 0 -2 -1 0 0 0 -3 -3 0 0 0 0 0 0 0 0 0 0
0 0 0 0 0 0 0 0 0 0 0 0 0 0 0 0 0 -1 0 0 -1 -1 -6 0 0 0 0 0 0 -2 0 0 0 0 0 -17 -29 -83 -35 0 0 0 0 0 0
0 0 0 0 -1 0 0 0 0 0 0 0 0 0 0 0 0 0 0 0 0 0 -1 -1 -1 -1 0 -2 -4 -1 0 0 0 -7 -32 -45 -63 -56 -70 0 0 -24 -19 -27 -19
Wind_Speed
25 25 24 25 24 25 25 26 27 28 29 31 32 33 35 35 36 27 24 23 25 27 26 26 21 21 17 16 15 16 21 22 19 18 18 12 8 6 3 5 2 6 13 13 5
25 25 25 25 25 25 26 27 27 28 29 31 33 34 36 36 33 31 20 21 23 26 25 26 25 23 19 18 17 17 22 25 21 20 19 17 12 9 9 6 5 4 11 4 4
25 25 25 25 25 25 25 26 26 28 29 31 33 34 36 36 32 23 17 21 22 23 24 23 23 23 22 19 17 19 23 22 21 21 20 19 17 11 11 12 9 9 5 3 3
26 26 25 25 25 25 26 26 26 28 29 31 32 34 36 28 32 19 19 23 22 22 24 25 24 24 24 22 20 24 20 21 21 19 21 21 20 16 14 13 11 10 6 6 5
26 26 25 26 26 26 25 25 26 27 28 29 31 33 31 30 29 23 24 23 21 23 26 26 25 24 25 23 25 25 25 23 21 22 25 24 23 22 18 13 15 9 7 8 7
26 26 26 26 26 26 26 26 27 26 26 28 30 30 30 39 25 23 21 22 22 24 26 24 23 23 26 26 26 26 26 26 24 22 24 27 26 22 16 13 13 9 9 10 10
24 26 27 26 26 27 27 27 26 25 25 27 28 28 33 34 25 24 25 25 25 27 28 23 22 23 22 26 24 27 32 29 26 23 23 25 29 22 19 13 13 12 11 11 11
24 24 26 25 27 29 28 26 24 23 25 26 26 29 40 29 28 30 27 28 25 22 23 20 19 23 24 24 26 29 29 35 22 21 21 21 32 22 16 16 15 14 12 12 13
27 26 25 24 23 22 20 21 22 24 24 23 27 30 41 25 27 23 21 26 21 19 17 18 18 25 24 29 32 27 35 31 31 22 22 20 31 22 15 17 20 18 16 15 14
25 25 23 21 16 13 15 17 19 20 20 20 23 28 28 27 21 20 16 18 21 17 19 20 21 25 25 26 34 32 29 30 31 23 25 29 32 26 22 21 21 21 20 18 17
21 18 17 15 12 9 10 14 21 24 22 24 22 22 21 20 18 17 17 17 17 19 23 19 24 26 22 22 28 31 33 33 29 27 33 34 37 32 26 22 23 22 21 19 18
11 10 12 9 9 10 15 20 21 21 29 25 28 30 29 25 27 20 14 18 18 23 17 22 28 24 28 31 30 29 32 33 33 31 33 38 46 35 27 26 25 24 22 20 18
9 6 6 8 9 16 18 17 18 22 29 28 26 29 27 23 28 25 15 19 21 25 22 29 24 19 27 30 31 31 32 33 35 34 35 42 57 37 25 23 24 24 24 21 20
11 8 7 5 14 14 19 17 18 21 30 30 24 22 19 19 28 22 20 20 22 27 27 33 31 33 31 31 27 35 30 30 35 35 39 28 52 36 29 30 23 23 23 21 21
15 11 9 13 18 23 19 13 15 20 36 20 20 16 15 17 23 20 17 19 29 26 24 26 26 25 28 29 26 33 27 29 33 35 39 35 38 35 21 26 30 27 27 24 21
18 16 13 17 18 17 9 7 12 25 37 25 21 21 22 22 21 19 19 16 19 28 32 33 30 26 24 22 22 24 25 27 29 31 38 35 32 57 32 26 33 28 27 27 25
17 14 16 14 19 11 8 11 26 36 25 28 26 25 26 24 25 22 22 23 25 27 32 31 34 32 28 32 26 24 26 33 35 33 39 28 30 35 41 35 32 36 41 36 31
18 15 17 17 13 10 12 22 38 33 32 23 23 24 28 24 24 22 23 27 24 26 30 32 32 25 22 28 28 26 29 32 41 41 37 27 39 31 29 35 36 34 32 32 28
14 17 17 16 12 12 20 36 36 33 25 25 21 25 26 23 22 22 23 25 23 22 30 31 30 19 15 20 19 24 29 29 35 36 42 41 45 47 31 27 33 32 35 34 31
17 17 19 17 14 16 26 37 33 26 23 23 29 26 26 22 21 20 21 20 20 20 19 24 35 25 22 19 20 25 22 29 27 38 42 36 37 40 40 35 37 38 39 37 34
20 20 15 13 13 21 35 34 30 22 21 23 24 23 22 22 20 22 22 18 18 20 18 21 25 22 22 23 23 24 26 27 30 31 39 47 44 36 36 39 41 45 43 40 38
21 29 21 17 24 26 32 24 21 20 19 18 17 19 22 21 24 24 25 22 17 19 24 21 25 33 32 26 27 28 29 28 34 37 35 40 47 39 38 44 49 49 47 47 46
23 21 18 20 28 27 24 25 22 20 19 20 21 20 19 24 28 23 21 18 18 20 22 22 27 38 35 23 21 21 23 26 28 32 43 47 46 39 46 50 48 44 46 48 47
19 24 20 19 23 22 21 20 20 19 20 20 20 19 21 23 22 24 22 20 19 20 20 24 28 33 41 37 33 38 37 33 34 42 45 45 49 47 52 51 46 45 45 46 45
18 22 22 26 25 21 21 21 22 24 21 19 22 24 25 29 27 29 27 27 26 25 24 25 34 32 36 39 37 39 40 40 39 39 45 48 48 45 45 48 47 43 44 45 43
17 18 17 19 19 20 22 24 25 23 20 22 23 21 22 26 26 27 24 25 26 23 24 24 33 30 38 36 35 40 40 40 40 41 43 43 45 39 39 36 38 39 40 40 39
13 12 13 15 16 20 22 18 18 16 18 17 18 20 22 23 22 23 25 26 28 29 29 29 31 33 44 36 36 40 39 40 39 34 33 39 36 34 34 35 35 36 40 41 38
Wind_Direction
273 276 278 281 285 289 292 296 298 300 302 304 306 307 307 309 306 312 305 316 320 321 323 323 330 330 333 329 331 331 314 315 318 319 322 332 322 327 300 313 293 309 316 325 101
272 275 278 281 284 288 290 294 298 301 303 304 306 308 308 309 307 302 314 322 323 325 325 322 322 324 322 323 323 314 308 311 317 319 319 323 314 307 296 268 271 284 307 357 109
270 273 277 280 283 287 291 294 298 300 302 304 306 308 308 309 305 307 316 321 322 325 327 327 324 321 314 317 315 314 304 314 313 314 316 318 314 301 283 268 256 248 246 222 186
270 272 275 278 282 285 289 293 296 299 301 305 306 308 307 310 295 314 316 317 318 320 321 319 318 313 312 309 311 304 307 308 311 315 311 309 315 302 286 288 293 281 231 214 220
267 270 273 277 280 284 288 292 295 298 302 305 308 309 309 299 296 308 310 313 313 314 312 313 311 313 306 308 307 301 304 307 306 307 303 303 300 301 294 283 303 285 240 231 239
265 268 271 275 279 283 287 291 294 297 302 305 308 309 301 290 308 308 311 309 309 310 308 310 309 311 305 303 301 307 305 304 305 300 299 296 294 294 295 294 288 269 252 247 244
265 268 270 274 278 282 287 290 292 295 299 304 306 306 293 290 304 307 305 302 303 303 299 304 306 305 309 304 307 305 302 302 297 297 295 298 287 283 288 288 278 270 260 251 249
266 269 271 274 277 279 284 290 291 296 297 300 304 300 288 301 302 296 297 297 299 299 298 303 307 302 299 306 303 301 300 296 305 303 291 291 289 290 278 278 273 270 263 258 252
267 270 271 274 278 281 285 291 294 294 298 298 297 293 291 308 298 306 295 292 298 300 297 304 300 295 298 294 295 295 293 294 296 303 300 287 294 300 287 280 275 270 267 263 258
264 267 269 270 278 282 292 297 298 299 299 301 297 293 294 294 303 310 310 300 298 299 296 291 294 292 291 287 287 293 292 294 293 303 299 291 288 291 292 286 280 275 268 262 255
261 264 266 270 265 277 294 304 296 293 286 283 290 293 303 308 311 306 309 302 300 292 286 284 284 284 288 288 291 293 292 292 297 300 298 292 289 291 291 283 280 277 274 266 259
260 260 261 272 279 280 284 285 295 303 292 284 282 283 289 300 293 296 305 296 294 287 290 288 281 287 290 292 289 289 291 293 298 298 295 293 286 292 289 281 279 274 269 264 258
226 251 258 271 281 280 280 283 299 303 289 290 286 285 288 284 285 287 287 292 288 285 283 281 290 299 294 289 287 286 288 293 294 299 297 294 275 292 289 277 276 274 271 262 249
245 243 238 260 276 278 278 285 296 301 288 285 288 296 292 292 288 291 271 280 283 285 282 287 288 285 286 286 290 286 295 294 292 294 291 305 285 294 300 298 286 282 281 266 257
246 242 245 272 274 271 276 286 300 300 281 293 287 299 306 293 298 304 302 272 273 278 282 286 293 294 288 287 289 290 296 295 293 290 290 289 291 298 312 305 295 290 291 286 276
246 245 246 269 275 279 278 281 298 279 273 282 289 288 287 286 294 302 301 299 295 277 276 279 290 292 295 299 297 297 298 294 293 291 287 286 285 278 300 313 309 305 302 300 292
235 237 251 262 269 265 248 268 273 270 283 281 283 283 283 286 285 289 288 284 285 283 279 283 278 279 284 284 289 292 293 290 287 283 285 296 283 282 297 308 310 305 303 301 295
234 237 256 265 266 246 249 263 266 274 275 293 288 286 282 287 289 285 285 282 285 286 287 284 285 287 281 279 286 286 282 283 283 283 286 294 283 290 306 306 308 310 315 313 307
220 246 243 261 256 246 250 259 268 274 280 280 287 283 285 289 292 288 289 288 298 294 283 286 285 302 303 300 292 294 285 288 285 288 286 283 285 290 306 314 314 315 314 312 311
234 247 251 260 260 251 257 260 270 279 282 279 274 285 280 287 287 290 292 304 301 311 299 297 285 293 300 301 299 290 301 292 289 286 285 287 288 289 299 304 309 312 313 312 314
239 245 258 257 257 254 253 262 267 276 280 278 278 279 283 284 289 291 295 300 305 310 315 302 292 293 302 296 295 297 291 291 291 288 288 287 286 299 305 306 306 305 306 308 309
242 246 261 252 249 254 255 264 270 267 279 284 286 283 282 287 287 290 287 295 307 309 299 306 297 288 291 297 299 294 292 292 287 289 291 291 288 298 304 304 307 302 303 302 301
239 252 267 252 246 253 258 258 267 266 269 276 279 285 288 285 285 289 289 301 303 304 300 303 294 289 290 296 301 294 302 300 297 294 288 290 292 300 301 301 306 304 306 305 302
243 244 254 247 257 249 250 255 262 269 271 278 280 284 284 285 289 288 289 297 301 300 301 300 289 284 281 286 298 292 293 295 293 290 292 290 295 299 298 299 306 306 308 309 305
251 250 250 248 249 250 256 260 260 266 275 273 276 275 278 281 283 280 285 288 292 293 293 293 287 285 285 287 290 289 289 289 287 289 290 295 297 300 301 302 304 305 307 309 310
249 255 254 262 247 249 256 260 263 265 269 270 276 279 280 282 284 287 288 288 287 295 295 295 290 289 287 290 291 289 288 288 288 290 292 295 296 303 306 309 309 308 310 308 310
263 267 261 256 253 251 253 253 255 261 274 283 278 281 283 287 293 294 293 290 288 288 290 290 290 291 285 291 294 288 289 290 291 291 295 296 302 310 310 311 311 309 308 308 307